Location: Unspecified
(0.0000°N, 0.0000°E)
Time: 08:50:34
(UTC+00:00)

Vanguard 1 - Visible Passes

Search period start: 23 May 2017 00:00
Search period end: 02 June 2017 00:00
Orbit: 654 x 3830 km, 34.2° (Epoch: 22 May)

Date Brightness Start Highest point End Pass type
(mag) Time Alt. Az. Time Alt. Az. Time Alt. Az.
23 May 13.0 01:21:24 10° NW 01:54:44 45° SE 02:04:35 10° SE visible
23 May 12.8 04:07:34 32° WSW 04:11:40 34° SW 04:25:10 10° SSE visible
23 May 13.6 20:58:02 10° NNW 21:10:13 23° NNE 21:18:47 18° ENE visible
23 May 13.2 23:18:36 10° NW 00:02:51 - ESE 23:31:24 46° N visible
24 May 12.9 01:43:23 10° WNW 02:15:39 44° SSE 02:25:45 10° SE visible
24 May 13.0 04:28:27 24° SW 04:33:40 26° SW 04:45:38 10° SSE visible
24 May 13.4 21:18:41 10° NNW 21:32:45 29° NNE 21:37:30 27° NE visible
24 May 13.2 23:39:44 10° NW 00:23:34 - ESE 23:50:07 41° NNW visible
25 May 12.9 02:36:21 42° S 02:36:21 42° S 02:46:45 10° SE visible
25 May 13.2 04:49:08 17° SW 04:55:58 20° SSW 05:05:59 10° SSE visible
25 May 13.7 19:22:29 10° N 19:26:29 11° NNE 19:31:03 10° NE visible
25 May 13.2 21:39:21 10° NNW 21:54:58 37° NE 21:56:20 37° NE visible
26 May 13.4 00:01:01 10° NW 00:44:05 12° SE 00:45:01 10° SE visible
26 May 13.0 02:56:51 38° S 02:56:51 38° S 03:07:37 10° SSE visible
26 May 13.3 05:09:37 10° SW 05:18:37 15° SSW 05:26:10 10° S visible
26 May 13.6 19:41:53 10° N 19:49:18 15° NNE 19:58:42 10° ENE visible
26 May 13.0 22:00:06 10° NNW 22:15:17 46° NNE 22:15:17 46° NNE visible
27 May 13.6 00:22:34 10° NW 01:04:27 16° SE 01:06:32 10° SE visible
27 May 13.1 03:17:13 33° SSW 03:17:13 33° SSW 03:28:23 10° SSE visible
27 May 13.4 05:36:34 10° SW 05:41:34 12° SSW 05:45:55 10° S visible
27 May 13.5 20:01:56 10° N 20:11:49 20° NNE 20:21:42 14° ENE visible
27 May 12.9 22:20:56 10° NW 22:34:20 52° N 22:34:20 52° N visible
28 May 13.7 00:44:25 10° WNW 01:24:41 18° SE 01:27:50 10° SE visible
28 May 13.2 03:37:26 28° SSW 03:37:26 28° SSW 03:49:06 10° SSE visible
28 May 13.3 20:22:13 10° NNW 20:33:59 27° NE 20:40:50 23° ENE visible
28 May 12.9 22:41:56 10° NW 22:53:29 52° NNW 22:53:29 52° NNW visible
29 May 13.6 01:44:50 21° SSE 01:44:50 21° SSE 01:48:57 10° SE visible
29 May 13.3 03:57:34 22° SSW 03:57:34 22° SSW 04:09:50 10° SSE visible
29 May 13.0 20:42:40 10° NNW 20:55:52 35° NE 21:00:02 33° ENE visible
29 May 13.0 23:03:07 10° NW 23:12:42 45° NW 23:12:42 45° NW visible
30 May 13.6 02:04:53 22° SSE 02:04:53 22° SSE 02:09:58 10° SSE visible
30 May 13.4 04:17:36 17° SSW 04:20:33 18° SSW 04:30:40 10° SSE visible
30 May 13.5 18:47:29 10° N 18:51:46 12° NNE 18:56:52 10° NE visible
30 May 12.8 21:03:14 10° NNW 21:17:31 45° NE 21:19:21 45° NE visible
30 May 13.2 23:24:33 10° WNW 00:12:07 - SE 23:32:00 35° WNW visible
31 May 13.5 02:24:50 23° SSE 02:24:50 23° SSE 02:30:57 10° SSE visible
31 May 13.5 04:37:34 12° SW 04:43:52 15° SSW 04:51:43 10° SSE visible
31 May 13.3 19:06:26 10° N 19:13:57 17° NE 19:24:03 10° ENE visible
31 May 12.6 21:23:57 10° NW 21:38:42 58° NE 21:38:42 58° NE visible
31 May 13.5 23:46:17 10° WNW 00:32:02 - SE 23:51:23 25° WNW visible
01 Jun 13.5 02:44:45 22° S 02:44:45 22° S 02:51:56 10° SSE visible
01 Jun 13.5 05:00:13 10° SSW 05:07:20 13° S 05:13:19 10° SSE visible
01 Jun 13.1 19:26:17 10° NNW 19:35:47 24° NE 19:45:28 16° ENE visible
01 Jun 12.5 21:44:50 10° NW 21:58:08 67° N 21:58:08 67° N visible
